Home   Weather   Canberra   Past weeks
Flag for Australia

Past Weather in Canberra, Australian Capital Territory, Australia — Yesterday and Last 2 Weeks

Now
32 °F

Clear.


Feels Like: 26 °F
Forecast: 55 / 36 °F
Wind: 7 mph from Southeast

Location: Canberra Airport

Current Time: Jul 16, 2019 at 4:39:03 am

Latest Report: Jul 16, 2019 at 4:00 am


Visibility: N/A

Pressure: 30.07 "Hg (27.98 "Hg at 577m altitude)

Humidity: 93%

Dew Point: 30 °F

Location of CanberraLocation

Past Weather in Canberra — Graph

°F

Canberra Temperature Yesterday

Maximum temperature yesterday: 55 °F (at 1:30 pm)
Minimum temperature yesterday: 41 °F (at 6:30 am)
Average temperature yesterday: 47 °F

High & Low Weather Summary for the Past Weeks

 TemperatureHumidityPressure
High61 °F (Jul 8, 2:00 pm)100% (Jul 1, 3:00 am)30.63 "Hg (Jul 1, 3:00 am)
Low25 °F (Jul 1, 6:00 am)27% (Jul 2, 1:30 pm)29.74 "Hg (Jul 11, 3:00 am)
Average45 °F78%30.18 "Hg
* Reported Jul 1 3:00 am — Jul 16 3:00 am, Canberra. Weather by CustomWeather, © 2019

Note: Actual official high and low records may vary slightly from our data, if they occured in-between our weather recording intervals... More about our weather records

Advertising

Canberra Weather History for the Previous 24 Hours

Scroll right to see more
 ConditionsComfort  
Time TempWeatherWind HumidityBarometerVisibility
3:00 am
Tue, Jul 16
39 °FClear.5 mph81%30.07 "HgN/A
2:30 am41 °FClear.3 mph76%30.09 "HgN/A
2:00 am39 °FClear.3 mph81%30.09 "HgN/A
1:30 am43 °FClear.8 mph71%30.09 "HgN/A
1:00 am45 °FClear.13 mph71%30.09 "HgN/A
12:30 am45 °FQuite cool.7 mph66%30.12 "HgN/A
12:00 am45 °FClear.13 mph71%30.12 "HgN/A
11:30 pm
Mon, Jul 15
45 °FClear.10 mph71%30.12 "HgN/A
11:00 pm45 °FClear.17 mph71%30.12 "HgN/A
10:30 pm45 °FClear.17 mph66%30.09 "HgN/A
9:30 pm45 °FClear.12 mph71%30.12 "HgN/A
9:00 pm45 °FClear.12 mph66%30.12 "HgN/A
8:30 pm45 °FClear.12 mph66%30.12 "HgN/A
8:00 pm45 °FClear.10 mph71%30.12 "HgN/A
7:30 pm45 °FClear.12 mph71%30.12 "HgN/A
7:00 pm45 °FClear.9 mph71%30.09 "HgN/A
6:30 pm46 °FClear.12 mph66%30.09 "HgN/A
6:00 pm46 °FClear.13 mph66%30.09 "HgN/A
5:30 pm48 °FClear.13 mph62%30.09 "HgN/A
5:00 pm48 °FSunny.15 mph62%30.07 "HgN/A
4:30 pm50 °FSunny.18 mph54%30.07 "HgN/A
4:00 pm52 °FSunny.18 mph50%30.04 "HgN/A
3:30 pm54 °FSunny.18 mph47%30.04 "HgN/A
3:00 pm54 °FSunny.17 mph47%30.04 "HgN/A
2:30 pm54 °FSunny.17 mph47%30.04 "HgN/A
2:00 pm55 °FSunny.15 mph41%30.04 "HgN/A
1:30 pm55 °FSunny.15 mph41%30.04 "HgN/A
1:00 pm54 °FSunny.14 mph44%30.01 "HgN/A
12:00 pm54 °FSunny.10 mph44%30.04 "HgN/A
11:30 am54 °FSunny.12 mph44%30.07 "HgN/A
11:00 am52 °FSunny.9 mph47%30.07 "HgN/A
10:30 am52 °FSunny.8 mph50%30.07 "HgN/A
10:00 am50 °FSunny.10 mph50%30.04 "HgN/A
9:30 am50 °FSunny.8 mph54%30.04 "HgN/A
9:00 am46 °FScattered clouds.7 mph66%30.01 "HgN/A
8:30 am45 °FPartly sunny.8 mph76%30.01 "HgN/A
8:00 am43 °FPartly sunny.6 mph81%29.98 "HgN/A
7:30 am41 °FPartly sunny.5 mph87%29.98 "HgN/A
7:00 am41 °FMostly cloudy.8 mph87%29.95 "HgN/A
6:30 am41 °FPassing clouds.12 mph81%29.92 "HgN/A
6:00 am43 °FMostly cloudy.10 mph76%29.92 "HgN/A
5:30 am45 °FMostly cloudy.13 mph71%29.89 "HgN/A
5:00 am45 °FPartly cloudy.14 mph71%29.86 "HgN/A
4:30 am45 °FPassing clouds.16 mph71%29.83 "HgN/A
4:00 am45 °FClear.20 mph71%29.83 "HgN/A
Weather by CustomWeather, © 2019

See weather overview